Time,TemperatureF,DewpointF,PressureIn,WindDirection,WindDirectionDegrees,WindSpeedMPH,WindSpeedGustMPH,Humidity,HourlyPrecipIn,Conditions,Clouds,dailyrainin,SoftwareType,DateUTC
2014-04-23 00:03:00,57.9,37.8,29.79,SSW,202,9.4,-999.0,47,-99.99,,,0.00,Acu-Link.com,2014-04-23 06:03:00,
2014-04-23 00:18:00,57.9,37.8,29.78,South,180,8.9,-999.0,47,-99.99,,,0.00,Acu-Link.com,2014-04-23 06:18:00,
2014-04-23 00:33:00,57.6,37.0,29.76,ESE,112,4.7,-999.0,46,-99.99,,,0.00,Acu-Link.com,2014-04-23 06:33:00,
2014-04-23 00:49:00,58.5,36.7,29.76,South,180,7.3,-999.0,44,-99.99,,,0.00,Acu-Link.com,2014-04-23 06:49:00,
2014-04-23 01:04:00,58.5,36.1,29.75,South,180,4.7,-999.0,43,-99.99,,,0.00,Acu-Link.com,2014-04-23 07:04:00,
2014-04-23 01:19:00,58.5,35.5,29.74,SSE,157,2.7,-999.0,42,-99.99,,,0.00,Acu-Link.com,2014-04-23 07:19:00,
2014-04-23 01:35:00,58.5,35.5,29.74,SSW,202,3.7,-999.0,42,-99.99,,,0.00,Acu-Link.com,2014-04-23 07:35:00,
2014-04-23 01:50:00,57.7,34.2,29.73,South,180,0.0,-999.0,41,-99.99,,,0.00,Acu-Link.com,2014-04-23 07:50:00,
2014-04-23 02:05:00,56.3,34.1,29.73,SSE,157,2.7,-999.0,43,-99.99,,,0.00,Acu-Link.com,2014-04-23 08:05:00,
2014-04-23 02:20:00,54.7,33.8,29.73,SW,225,0.0,-999.0,45,-99.99,,,0.00,Acu-Link.com,2014-04-23 08:20:00,
2014-04-23 02:35:00,53.4,34.7,29.74,SSE,157,2.7,-999.0,49,-99.99,,,0.00,Acu-Link.com,2014-04-23 08:35:00,
2014-04-23 02:51:00,52.7,34.6,29.72,SE,135,0.0,-999.0,50,-99.99,,,0.00,Acu-Link.com,2014-04-23 08:51:00,
2014-04-23 03:06:00,51.8,35.2,29.73,SE,135,1.1,-999.0,53,-99.99,,,0.00,Acu-Link.com,2014-04-23 09:06:00,
2014-04-23 03:21:00,51.4,35.8,29.73,ESE,112,0.0,-999.0,55,-99.99,,,0.00,Acu-Link.com,2014-04-23 09:21:00,
2014-04-23 03:37:00,55.9,34.3,29.73,West,270,10.9,-999.0,44,-99.99,,,0.00,Acu-Link.com,2014-04-23 09:37:00,
2014-04-23 03:52:00,54.9,35.1,29.73,South,180,3.2,-999.0,47,-99.99,,,0.00,Acu-Link.com,2014-04-23 09:52:00,
2014-04-23 04:07:00,53.6,34.9,29.73,ESE,112,0.0,-999.0,49,-99.99,,,0.00,Acu-Link.com,2014-04-23 10:07:00,
2014-04-23 04:23:00,52.7,36.1,29.72,ESE,112,0.0,-999.0,53,-99.99,,,0.00,Acu-Link.com,2014-04-23 10:23:00,
2014-04-23 04:38:00,51.6,36.0,29.72,SE,135,0.0,-999.0,55,-99.99,,,0.00,Acu-Link.com,2014-04-23 10:38:00,
2014-04-23 04:53:00,50.7,35.6,29.73,SE,135,0.0,-999.0,56,-99.99,,,0.00,Acu-Link.com,2014-04-23 10:53:00,
2014-04-23 05:09:00,50.0,35.8,29.73,SE,135,0.0,-999.0,58,-99.99,,,0.00,Acu-Link.com,2014-04-23 11:09:00,
2014-04-23 05:24:00,48.9,35.2,29.73,SE,135,0.0,-999.0,59,-99.99,,,0.00,Acu-Link.com,2014-04-23 11:24:00,
2014-04-23 05:39:00,47.3,34.5,29.73,SE,135,0.0,-999.0,61,-99.99,,,0.00,Acu-Link.com,2014-04-23 11:39:00,
2014-04-23 05:55:00,45.7,34.2,29.73,SE,135,0.0,-999.0,64,-99.99,,,0.00,Acu-Link.com,2014-04-23 11:55:00,
2014-04-23 06:10:00,45.3,33.5,29.74,SE,135,0.0,-999.0,63,-99.99,,,0.00,Acu-Link.com,2014-04-23 12:10:00,
2014-04-23 06:25:00,44.2,33.2,29.75,SE,135,0.0,-999.0,65,-99.99,,,0.00,Acu-Link.com,2014-04-23 12:25:00,
2014-04-23 06:40:00,43.0,32.4,29.76,SE,135,0.0,-999.0,66,-99.99,,,0.00,Acu-Link.com,2014-04-23 12:40:00,
2014-04-23 06:56:00,43.2,32.6,29.76,ENE,67,0.0,-999.0,66,-99.99,,,0.00,Acu-Link.com,2014-04-23 12:56:00,
2014-04-23 07:11:00,45.5,34.4,29.76,ENE,67,0.0,-999.0,65,-99.99,,,0.00,Acu-Link.com,2014-04-23 13:11:00,
2014-04-23 07:27:00,51.1,36.4,29.76,ENE,67,0.0,-999.0,57,-99.99,,,0.00,Acu-Link.com,2014-04-23 13:27:00,
2014-04-23 07:42:00,56.5,36.5,29.77,ENE,67,0.0,-999.0,47,-99.99,,,0.00,Acu-Link.com,2014-04-23 13:42:00,
2014-04-23 07:57:00,60.1,35.7,29.76,ESE,112,5.3,-999.0,40,-99.99,,,0.00,Acu-Link.com,2014-04-23 13:57:00,
2014-04-23 08:12:00,60.1,34.4,29.76,SSW,202,2.7,-999.0,38,-99.99,,,0.00,Acu-Link.com,2014-04-23 14:12:00,
2014-04-23 08:27:00,64.4,36.2,29.75,WNW,292,4.7,-999.0,35,-99.99,,,0.00,Acu-Link.com,2014-04-23 14:27:00,
2014-04-23 08:43:00,61.5,32.9,29.76,NNW,337,7.3,-999.0,34,-99.99,,,0.00,Acu-Link.com,2014-04-23 14:43:00,
2014-04-23 08:58:00,62.4,33.7,29.75,SSW,202,6.8,-999.0,34,-99.99,,,0.00,Acu-Link.com,2014-04-23 14:58:00,
2014-04-23 09:28:00,63.5,32.3,29.75,West,270,10.9,-999.0,31,-99.99,,,0.00,Acu-Link.com,2014-04-23 15:28:00,
2014-04-23 09:43:00,64.6,32.5,29.74,SW,225,9.4,-999.0,30,-99.99,,,0.00,Acu-Link.com,2014-04-23 15:43:00,
2014-04-23 09:59:00,64.6,29.9,29.73,NW,315,9.4,-999.0,27,-99.99,,,0.00,Acu-Link.com,2014-04-23 15:59:00,
2014-04-23 10:14:00,65.3,30.5,29.72,SW,225,5.3,-999.0,27,-99.99,,,0.00,Acu-Link.com,2014-04-23 16:14:00,
2014-04-23 10:29:00,67.3,32.2,29.72,SW,225,5.8,-999.0,27,-99.99,,,0.00,Acu-Link.com,2014-04-23 16:29:00,
2014-04-23 10:44:00,66.4,30.5,29.71,SSW,202,10.9,-999.0,26,-99.99,,,0.00,Acu-Link.com,2014-04-23 16:44:00,
2014-04-23 10:59:00,66.4,27.5,29.71,West,270,9.4,-999.0,23,-99.99,,,0.00,Acu-Link.com,2014-04-23 16:59:00,
2014-04-23 11:14:00,66.9,27.9,29.70,North,0,13.5,-999.0,23,-99.99,,,0.00,Acu-Link.com,2014-04-23 17:14:00,
2014-04-23 11:29:00,67.8,27.6,29.69,NW,315,8.9,-999.0,22,-99.99,,,0.00,Acu-Link.com,2014-04-23 17:29:00,
2014-04-23 11:44:00,69.1,27.5,29.69,SW,225,8.9,-999.0,21,-99.99,,,0.00,Acu-Link.com,2014-04-23 17:44:00,
2014-04-23 11:59:00,67.3,29.3,29.69,SSW,202,10.4,-999.0,24,-99.99,,,0.00,Acu-Link.com,2014-04-23 17:59:00,
2014-04-23 12:14:00,67.8,28.7,29.68,West,270,9.9,-999.0,23,-99.99,,,0.00,Acu-Link.com,2014-04-23 18:14:00,
2014-04-23 12:29:00,68.5,28.2,29.67,South,180,6.8,-999.0,22,-99.99,,,0.00,Acu-Link.com,2014-04-23 18:29:00,
2014-04-23 12:44:00,69.6,27.9,29.67,NNW,337,11.4,-999.0,21,-99.99,,,0.00,Acu-Link.com,2014-04-23 18:44:00,
2014-04-23 12:59:00,69.1,27.5,29.67,SW,225,7.8,-999.0,21,-99.99,,,0.00,Acu-Link.com,2014-04-23 18:59:00,
2014-04-23 13:14:00,70.0,29.4,29.66,South,180,17.1,-999.0,22,-99.99,,,0.00,Acu-Link.com,2014-04-23 19:14:00,
2014-04-23 13:29:00,70.9,30.2,29.65,South,180,14.0,-999.0,22,-99.99,,,0.00,Acu-Link.com,2014-04-23 19:29:00,
2014-04-23 13:45:00,69.4,27.8,29.65,SW,225,7.3,-999.0,21,-99.99,,,0.00,Acu-Link.com,2014-04-23 19:45:00,
2014-04-23 14:00:00,68.0,26.6,29.64,North,0,7.8,-999.0,21,-99.99,,,0.00,Acu-Link.com,2014-04-23 20:00:00,
2014-04-23 14:15:00,69.3,28.8,29.64,West,270,6.3,-999.0,22,-99.99,,,0.00,Acu-Link.com,2014-04-23 20:15:00,
2014-04-23 14:30:00,70.2,27.3,29.64,SSE,157,7.3,-999.0,20,-99.99,,,0.00,Acu-Link.com,2014-04-23 20:30:00,
2014-04-23 14:45:00,69.4,28.9,29.63,WNW,292,10.9,-999.0,22,-99.99,,,0.00,Acu-Link.com,2014-04-23 20:45:00,
2014-04-23 15:00:00,70.3,27.3,29.64,NW,315,8.3,-999.0,20,-99.99,,,0.00,Acu-Link.com,2014-04-23 21:00:00,
2014-04-23 15:16:00,69.3,28.8,29.63,West,270,10.9,-999.0,22,-99.99,,,0.00,Acu-Link.com,2014-04-23 21:16:00,
2014-04-23 15:31:00,69.1,30.8,29.62,West,270,10.4,-999.0,24,-99.99,,,0.00,Acu-Link.com,2014-04-23 21:31:00,
2014-04-23 15:46:00,68.5,29.2,29.62,SSE,157,12.5,-999.0,23,-99.99,,,0.00,Acu-Link.com,2014-04-23 21:46:00,
2014-04-23 16:01:00,63.5,26.1,29.62,SSW,202,10.4,-999.0,24,-99.99,,,0.00,Acu-Link.com,2014-04-23 22:01:00,
2014-04-23 16:16:00,61.5,25.4,29.63,SSW,202,9.4,-999.0,25,-99.99,,,0.00,Acu-Link.com,2014-04-23 22:16:00,
2014-04-23 16:31:00,59.5,27.2,29.63,SW,225,5.3,-999.0,29,-99.99,,,0.00,Acu-Link.com,2014-04-23 22:31:00,
2014-04-23 16:46:00,57.6,28.7,29.63,SW,225,20.2,-999.0,33,-99.99,,,0.00,Acu-Link.com,2014-04-23 22:46:00,
2014-04-23 17:01:00,59.7,28.2,29.62,SW,225,13.0,-999.0,30,-99.99,,,0.00,Acu-Link.com,2014-04-23 23:01:00,
2014-04-23 17:16:00,61.0,24.0,29.63,West,270,11.4,-999.0,24,-99.99,,,0.00,Acu-Link.com,2014-04-23 23:16:00,
2014-04-23 17:31:00,59.7,22.9,29.63,West,270,9.4,-999.0,24,-99.99,,,0.00,Acu-Link.com,2014-04-23 23:31:00,
2014-04-23 17:46:00,58.1,22.5,29.64,West,270,16.6,-999.0,25,-99.99,,,0.00,Acu-Link.com,2014-04-23 23:46:00,
2014-04-23 18:01:00,57.0,25.9,29.66,SSE,157,15.0,-999.0,30,-99.99,,,0.00,Acu-Link.com,2014-04-24 00:01:00,
2014-04-23 18:16:00,55.2,28.0,29.68,WSW,247,8.3,-999.0,35,-99.99,,,0.00,Acu-Link.com,2014-04-24 00:16:00,
2014-04-23 18:32:00,54.0,28.3,29.69,ESE,112,4.7,-999.0,37,-99.99,,,0.00,Acu-Link.com,2014-04-24 00:32:00,
2014-04-23 18:47:00,53.2,28.3,29.71,West,270,7.8,-999.0,38,-99.99,,,0.00,Acu-Link.com,2014-04-24 00:47:00,
2014-04-23 19:02:00,52.9,28.0,29.70,WNW,292,7.3,-999.0,38,-99.99,,,0.00,Acu-Link.com,2014-04-24 01:02:00,
2014-04-23 19:17:00,53.4,29.7,29.71,NW,315,4.7,-999.0,40,-99.99,,,0.00,Acu-Link.com,2014-04-24 01:17:00,
2014-04-23 19:32:00,50.4,30.4,29.72,NNW,337,2.2,-999.0,46,-99.99,,,0.00,Acu-Link.com,2014-04-24 01:32:00,
2014-04-23 19:47:00,49.5,30.1,29.71,NNW,337,4.7,-999.0,47,-99.99,,,0.00,Acu-Link.com,2014-04-24 01:47:00,
2014-04-23 20:02:00,48.0,26.0,29.72,West,270,3.7,-999.0,42,-99.99,,,0.00,Acu-Link.com,2014-04-24 02:02:00,
2014-04-23 20:17:00,47.5,25.6,29.72,West,270,2.7,-999.0,42,-99.99,,,0.00,Acu-Link.com,2014-04-24 02:17:00,
2014-04-23 20:33:00,46.2,23.8,29.72,WNW,292,0.0,-999.0,41,-99.99,,,0.00,Acu-Link.com,2014-04-24 02:33:00,
2014-04-23 20:48:00,45.3,23.0,29.73,West,270,1.7,-999.0,41,-99.99,,,0.00,Acu-Link.com,2014-04-24 02:48:00,
2014-04-23 21:03:00,45.0,22.1,29.74,West,270,1.1,-999.0,40,-99.99,,,0.00,Acu-Link.com,2014-04-24 03:03:00,
2014-04-23 21:18:00,44.4,20.4,29.75,West,270,1.7,-999.0,38,-99.99,,,0.00,Acu-Link.com,2014-04-24 03:18:00,
2014-04-23 21:34:00,42.8,19.0,29.76,West,270,0.0,-999.0,38,-99.99,,,0.00,Acu-Link.com,2014-04-24 03:34:00,
2014-04-23 21:49:00,41.7,18.0,29.77,West,270,0.0,-999.0,38,-99.99,,,0.00,Acu-Link.com,2014-04-24 03:49:00,